星链-36289(STARLINK-36289)

导读 | 豆包AI

STARLINK-36289是由美国发射的星链卫星,于2026年2月16日升空,隶属于SpaceX打造的星链星座网络。星链系统旨在为全球范围提供低延迟、高速率的宽带互联网服务,尤其覆盖偏远区域等传统网络难以触达的地区。该卫星的入轨,进一步扩充了星链星座的卫星规模,提升了星座整体的服务覆盖能力与稳定性,助力星链全球组网进程推进。

基本信息
目录编号:
67827
目录名称:
STARLINK-36289
国际标识:
2026-033G
轨道中心:
EARTH
卫星名称:
星链-36289
卫星全名:
星链-36289(STARLINK-36289)
卫星状态:
在轨 (已飞行26 天)
发射日期:
2026-02-16 UTC
国别 :
美国 (US)
星等 :
--
轨道信息
数据来源 国际轨道数据
星历时间: 2026-03-14T14:00:02+0800
12小时前
查看轨道信息
半长轴: 6746.79km
偏心率: 0.0001802
轨道倾角: 42.999°
近地点辐角 266.495°
升交点赤经 243.769°
平近点角 74.386°
近地点: 367.437km
远地点: 369.869km
周期: 91.919分钟
每日圈数: 15.665959
详细信息
固有亮度:
5
最大亮度:
2.5
卫星平台:
Starlink V1.0
覆盖范围:
全球
运营商:
太空探索技术公司
运营商所在国:
美国
制造商(研发单位):
太空探索技术公司
制造商所在国:
美国
使用方式:
暂无
卫星简介
Starlink 计划是 SpaceX 推出的全球卫星互联网项目,通过发射低轨道卫星,为全球尤其是偏远地区提供高速、低延迟的互联网服务。自 2019 年起,Starlink 已部署数千颗卫星,旨在缩小全球数字鸿沟,推动互联网普及。该项目还为军事、航空等行业提供通信支持,带来广泛经济效益。
2D轨道图
3D轨道图
轨道高度分析图
轨道倾角分析图
轨道综合分析图
查看轨道综合分析图